Погода в Гурзуфе

Россия / Республика Крым     44°32′50″N   34°17′29″E
темп.,
°C
ветер,
м/с
пор.,
м/с
влажн.,
%
обл.,
%
осадки,
мм/ч
давл.,
гПа
погр.,
м
17 мая, пн
пн1700:00+16зсз448429 0.3 100230
03:00+15з45871 0.3 100257
06:00+14зюз459459 0.2 1003112
09:00+16зюз3487100 0.5 1004206
12:00+16зсз448151 0.1 1006209
15:00+15з568345 0.1 1007204
18:00+15з338187 0.1 100790
21:00+14зюз56873 0.4 1009150
18 мая, вт
вт1800:00+13зюз469219 0.0 1009171
03:00+13з458592 0.0 1009106
06:00+14юз358599 0.0 1009122
09:00+14ююз2387100 0.0 1009241
12:00+15ю138060 0.0 1009278
15:00+15ю238252 0.1 1008357
18:00+15зюз2392100 1.3 1007120
21:00+15зюз5787100 1.8 1008120
19 мая, ср
ср1900:00+13зюз7986100 0.1 1009506
03:00+13з810839 0.4 1008331
06:00+13зсз558017 0.1 1009124
09:00+14з7107533 0.2 1010839
12:00+15зюз897233 0.3 1012726
15:00+15зюз897036 0.5 1012670
18:00+15з667421 0.1 1013320
21:00+13сз337859 0.1 101452
20 мая, чт
чт2000:00+13зсз22730 0.0 101431
03:00+13зюз3379100 0.0 1014121
06:00+13сз22762 0.0 101343
09:00+15всв236228 0.0 1013202
12:00+15всв4568100 0.0 1012299
15:00+16всв456382 0.0 1012282
18:00+17св45595 0.0 1010146
21:00+15ссв445712 0.0 101031
21 мая, пт
пт2100:00+15сз445517 0.0 101024
03:00+16сз335524 0.0 100915
06:00+16сз445973 0.0 100925
09:00+18ююз12625 0.0 1010160
12:00+19ю22572 0.0 1010407
15:00+18ююз23552 0.0 1010473
18:00+18св11549 0.0 1009288
21:00+17с3374100 0.1 100923